Temp
26 25 25 27 27 28 27 26 28 29 30 29 26 28 27 26 28 27 27 27 28 27 28 27 27 27 26 26 26 26 26 26 25 26 26 25 25 26 26 27 27 25 24 25
25 25 26 28 28 27 27 26 27 29 28 28 26 27 26 26 28 28 28 26 27 27 27 27 27 26 25 26 26 27 27 27 26 26 27 27 27 26 26 27 26 27 26 25
27 27 28 29 29 28 27 27 27 29 28 27 27 27 25 27 26 27 27 27 25 26 26 27 26 25 25 25 26 27 27 27 27 27 26 26 26 25 24 25 26 27 27 25
26 29 28 29 29 26 26 28 29 29 27 26 25 26 26 25 25 26 26 25 25 24 24 24 26 25 25 25 26 27 27 27 27 26 26 26 26 25 26 26 25 25 25 25
28 26 27 27 28 27 27 27 28 29 27 25 25 24 24 24 25 24 25 25 24 24 25 25 25 26 26 25 25 26 27 26 27 27 26 26 26 26 26 25 23 23 25 24
27 29 28 28 30 29 30 29 26 24 24 24 25 25 26 24 24 24 23 24 24 24 25 25 26 27 26 25 25 24 26 26 26 26 26 26 26 25 24 23 21 21 21 21
28 28 30 31 29 28 27 25 25 25 24 24 23 24 26 25 24 25 23 23 23 24 24 24 23 24 24 25 24 25 25 25 25 26 26 25 25 25 24 21 21 20 19 18
28 28 30 29 29 27 25 24 24 27 24 26 24 23 26 23 23 23 23 23 24 23 26 22 23 23 25 24 25 24 24 25 24 23 23 23 21 20 20 19 19 19 18 17
26 28 30 29 27 29 26 25 27 27 23 24 23 24 24 23 22 22 23 22 21 21 20 20 19 18 19 24 23 23 23 22 21 21 21 20 21 19 19 19 18 17 17 17
28 29 29 30 30 29 29 29 27 23 28 28 24 24 24 22 22 22 22 22 21 21 20 19 18 18 18 19 21 23 22 19 18 18 18 19 18 17 17 17 17 16 17 16
26 27 30 30 29 30 28 27 25 23 22 25 24 25 24 23 23 21 23 22 21 20 19 19 18 17 17 17 17 18 17 18 17 16 18 17 17 16 16 16 16 16 16 16
29 24 28 31 30 29 29 29 24 23 26 22 22 24 22 21 22 22 22 21 20 19 19 18 17 17 17 17 17 17 17 17 17 16 16 15 15 15 15 15 15 15 16 15
29 24 24 26 26 28 29 29 26 21 20 23 24 24 22 20 21 22 20 20 19 19 18 18 17 17 17 17 17 17 17 16 16 16 16 15 15 14 14 14 14 15 15 15
24 21 24 24 26 26 29 28 28 25 22 24 23 25 21 20 20 20 19 19 19 19 18 18 17 17 17 17 17 17 17 16 16 16 15 15 15 15 15 14 14 14 14 14
25 26 25 25 25 26 28 28 28 27 25 25 26 24 25 21 20 19 19 19 19 19 18 18 18 17 17 17 17 17 17 16 16 16 16 16 16 15 15 14 14 14 14 15
23 26 27 28 27 26 27 27 27 27 27 25 25 24 20 20 19 19 18 19 19 19 19 18 18 17 17 17 17 17 17 17 17 17 16 16 16 15 15 14 14 15 15 15
25 22 22 24 25 25 26 27 28 27 25 24 23 23 19 19 20 19 19 19 19 19 19 18 18 18 18 17 17 17 17 17 17 17 16 16 16 15 15 15 15 15 16 16
22 21 19 22 24 25 25 25 26 24 23 21 20 20 20 20 19 19 19 19 19 19 18 17 18 18 18 18 18 18 17 17 17 16 16 16 16 15 15 15 16 16 16 16
21 20 21 23 21 23 28 27 27 26 24 23 21 20 20 19 20 20 19 19 19 19 18 18 19 19 18 18 18 18 17 17 17 17 17 16 16 16 16 16 16 16 16 16
20 19 23 19 24 24 24 26 26 24 23 22 20 20 20 20 20 20 18 19 19 20 19 19 19 19 19 18 18 18 17 17 17 17 17 17 17 17 17 17 17 17 17 17
21 20 23 20 21 22 23 25 25 25 23 22 20 18 18 17 17 18 17 18 19 19 19 20 19 19 19 19 19 18 17 17 18 18 18 18 18 18 18 18 17 17 17 18
23 22 20 18 22 23 24 24 26 21 19 20 20 19 19 19 18 18 18 17 18 18 19 19 19 19 19 19 19 18 18 19 18 19 18 18 18 18 18 18 18 18 17 18
23 22 21 20 20 20 20 23 21 20 20 20 19 20 21 19 19 19 17 17 17 18 18 19 20 19 19 20 20 19 19 19 19 19 19 19 18 18 18 18 18 18 18 18
23 20 20 21 22 21 21 20 21 20 20 20 19 21 20 19 19 18 17 17 17 18 17 18 18 19 18 19 20 20 20 20 20 19 19 19 19 19 18 18 18 18 18 18
21 22 19 19 20 20 21 21 19 19 20 20 20 20 19 19 19 18 17 17 17 18 18 19 19 19 19 19 20 20 20 20 19 19 19 19 19 19 19 18 18 18 19 18
19 20 21 21 20 19 19 20 19 19 21 20 21 20 20 20 19 18 17 17 18 18 19 18 18 19 19 20 20 20 20 20 20 19 19 19 19 19 19 18 19 19 19 19
Height
784 800 811 799 791 788 799 809 809 794 782 789 800 792 788 781 779 783 783 783 777 779 780 784 787 791 798 803 804 807 812 816 819 820 824 829 830 830 830 830 830 831 832 832
799 812 795 785 783 793 800 812 808 792 788 789 800 795 787 779 768 771 777 779 780 779 779 781 785 789 791 795 800 803 806 810 814 817 819 823 825 825 825 826 826 827 825 827
803 796 787 786 785 800 806 813 811 804 795 793 793 796 790 773 774 774 773 775 777 777 776 779 783 786 790 793 795 798 802 805 807 810 815 818 821 822 822 821 820 821 822 824
799 786 794 795 796 804 823 793 789 798 808 830 805 828 789 777 778 774 775 776 776 775 774 778 780 785 783 785 790 793 798 802 805 808 811 812 813 816 817 818 821 820 821 824
798 798 802 806 794 793 800 788 788 790 809 820 815 831 798 785 783 776 774 772 774 775 775 778 777 777 784 789 792 789 791 798 802 805 807 810 809 811 815 817 818 822 824 824
791 775 786 783 772 777 772 790 799 807 818 841 812 818 797 796 780 773 772 769 768 769 769 773 775 778 782 788 791 795 790 791 797 801 804 807 809 812 813 815 817 821 822 823
786 786 769 765 783 780 790 808 836 839 847 842 818 823 792 776 770 766 768 766 763 759 761 762 767 770 773 778 787 789 790 789 794 797 801 806 809 811 813 815 817 820 821 822
805 812 774 765 773 789 799 809 833 840 848 827 813 825 790 776 768 762 763 764 761 758 749 755 764 766 771 773 777 784 788 786 791 796 797 801 805 810 814 818 820 819 821 822
809 799 761 762 768 771 795 812 787 807 824 832 818 799 784 777 774 768 765 767 768 766 765 765 767 767 770 769 776 780 785 785 787 793 798 801 803 803 812 816 820 823 822 824
779 802 771 766 762 764 773 772 807 820 825 826 821 809 800 791 783 776 770 767 771 770 771 768 769 772 771 770 772 775 777 786 797 801 803 802 793 809 814 816 821 822 822 822
775 790 785 772 779 783 788 796 798 812 824 830 839 812 780 780 773 781 774 772 773 774 777 775 772 772 773 775 777 780 785 791 798 778 798 800 809 811 816 820 823 823 821 823
765 795 802 782 766 768 774 782 801 824 817 824 829 814 772 770 767 772 773 775 776 776 778 778 778 777 777 780 780 782 787 789 795 800 803 804 812 810 814 819 822 822 822 824
764 800 823 810 794 778 782 779 787 806 816 816 819 809 774 774 773 771 778 778 778 778 778 777 777 778 778 781 786 788 790 794 800 804 805 806 808 807 813 819 822 822 824 824
765 804 808 827 805 793 788 782 779 793 820 809 810 788 782 780 777 776 776 777 777 778 778 778 777 778 779 782 784 789 794 796 797 799 802 802 803 808 816 820 822 822 824 826
771 796 796 793 790 787 780 781 777 784 787 800 783 784 765 772 771 773 775 778 777 777 777 777 776 778 781 782 785 784 789 795 796 795 799 803 808 814 818 819 822 825 825 827
778 792 784 786 778 782 784 776 772 769 770 776 772 774 763 763 768 773 773 773 773 771 770 774 777 782 785 787 785 785 787 792 800 802 807 810 813 815 818 821 823 824 825 828
781 795 806 807 786 787 797 773 765 766 767 772 783 762 763 767 766 766 765 766 766 769 772 775 777 780 783 785 789 790 790 793 800 804 807 811 814 817 819 819 821 825 827 830
786 795 806 806 794 814 778 761 758 767 770 771 769 764 762 761 760 758 761 766 769 770 774 776 777 780 783 786 789 790 795 797 801 805 811 812 814 817 819 820 823 824 826 829
776 790 801 806 814 793 767 763 763 766 769 761 767 765 761 760 760 758 759 762 762 764 766 770 778 781 786 785 788 792 796 799 800 807 812 814 818 819 818 819 821 823 825 827
777 781 789 813 805 808 778 755 750 758 785 756 761 764 766 766 776 758 750 755 760 763 766 771 774 782 786 786 791 793 796 799 803 806 810 814 816 817 816 817 819 821 823 824
794 796 796 807 806 790 763 753 751 780 783 756 765 770 775 784 776 760 753 755 760 763 765 770 775 779 782 785 789 793 797 798 801 806 809 813 815 815 816 817 819 820 821 821
790 798 803 809 802 799 755 753 763 767 760 756 757 760 761 763 764 763 762 760 762 763 767 771 775 778 782 785 788 792 795 797 801 804 807 810 812 814 815 816 816 817 817 817
790 783 790 791 787 762 757 756 757 755 757 756 756 748 745 752 753 761 767 761 760 761 764 768 771 776 780 783 786 789 793 796 798 801 804 807 810 812 813 813 813 813 813 813
769 769 778 777 763 761 756 755 752 753 753 748 744 736 744 747 749 757 763 759 760 761 763 765 770 773 777 781 784 787 791 794 797 800 802 805 807 808 809 809 809 809 808 808
770 767 776 777 764 758 755 753 753 750 745 743 743 740 744 744 747 752 754 752 756 759 761 764 767 771 774 778 782 785 788 792 794 797 799 801 803 804 805 805 805 804 803 802
765 767 771 770 757 758 756 748 748 747 744 742 743 744 744 742 743 746 746 748 753 757 760 764 766 769 773 777 779 782 785 788 791 793 795 797 799 800 801 801 800 800 798 798
Wind_Speed
4 5 2 2 1 4 3 5 7 3 5 3 5 5 7 11 12 11 11 12 13 10 16 25 31 34 32 35 38 38 37 33 28 24 21 18 14 10 16 20 19 20 24 22
5 3 8 8 12 9 7 8 4 1 9 4 5 3 7 9 16 15 12 8 7 6 11 20 26 29 34 39 41 40 37 33 31 28 23 21 17 11 12 15 19 18 22 24
3 4 3 9 4 4 3 3 3 1 5 1 2 6 6 8 2 1 4 1 3 7 13 15 20 28 29 33 39 41 36 34 32 33 27 23 18 13 10 10 14 17 19 26
1 4 3 5 7 6 2 3 9 7 4 5 5 5 6 5 6 5 4 5 6 5 5 7 16 23 31 36 40 42 38 35 31 29 28 28 27 18 16 12 13 16 19 19
3 6 9 5 7 9 9 6 8 8 3 3 2 1 7 3 6 7 4 8 7 6 1 4 8 23 22 24 29 41 40 39 35 32 30 28 26 23 19 15 16 14 15 17
6 6 8 10 13 16 2 2 5 6 4 1 4 6 7 4 6 3 4 6 8 7 6 5 6 16 20 21 24 26 37 39 40 37 33 30 25 23 19 16 15 14 13 13
1 6 4 6 3 3 4 5 3 3 1 6 3 3 9 2 6 8 9 9 9 10 11 9 3 9 23 32 31 26 33 34 37 38 36 30 26 22 22 20 15 15 13 10
1 7 7 6 7 7 6 7 5 5 4 5 2 6 5 4 4 3 2 3 4 7 3 11 4 4 14 24 34 30 25 32 32 31 32 27 17 3 9 6 7 9 10 8
4 6 3 4 3 3 5 4 5 3 3 2 3 6 1 3 2 1 1 3 4 6 8 10 10 13 12 24 30 32 25 26 25 25 25 19 14 7 18 11 10 9 9 10
4 2 2 4 1 0 2 3 3 3 2 4 4 5 4 7 8 4 4 6 6 3 6 7 9 11 13 9 22 30 30 19 16 18 17 15 13 18 14 12 11 12 12 12
5 4 4 0 1 2 3 3 4 4 4 2 3 6 5 12 14 8 4 3 4 4 5 5 7 13 17 18 19 18 19 21 20 12 18 15 16 15 13 12 13 12 10 9
2 5 2 5 2 1 1 2 4 5 6 3 5 6 4 4 11 13 8 6 3 4 5 4 7 10 13 17 19 18 19 22 22 20 18 17 15 14 14 12 11 9 9 9
4 3 3 8 7 5 3 1 3 4 3 4 4 6 2 6 12 12 10 6 4 4 5 5 8 9 13 16 18 19 18 18 16 15 16 17 14 14 12 10 9 7 5 6
8 3 6 6 7 4 3 2 3 4 3 3 6 7 5 7 12 13 10 9 7 6 6 5 7 9 12 14 16 15 14 13 14 16 14 13 12 10 10 9 6 5 7 5
4 3 5 7 6 4 4 5 4 5 6 6 8 7 4 12 15 14 11 10 11 9 8 8 8 9 15 16 16 16 14 12 11 13 11 12 11 11 9 7 6 8 8 7
3 2 2 3 5 6 5 8 6 3 5 7 5 7 3 8 11 12 14 12 12 12 12 10 8 9 10 10 15 16 16 15 12 12 11 11 11 10 9 11 10 9 8 7
3 5 3 5 2 5 5 6 5 3 2 3 6 6 6 6 10 13 14 15 13 9 7 8 9 12 14 16 18 19 20 19 16 13 14 13 12 12 11 11 10 11 9 7
6 4 3 4 3 1 7 6 4 6 2 4 3 4 3 2 2 4 2 6 6 6 6 7 10 13 14 17 19 20 18 17 15 13 13 13 12 13 12 12 12 11 10 9
1 4 2 2 3 5 3 3 2 3 5 5 4 4 5 5 2 3 6 6 7 8 10 15 15 18 17 19 18 19 17 17 16 16 15 15 15 14 12 12 11 10 9 10
4 5 4 2 2 5 7 3 3 4 4 8 7 6 2 3 3 6 8 9 7 9 16 15 21 23 24 21 22 21 19 17 17 17 17 15 13 12 11 9 9 10 12 15
4 4 1 1 4 7 6 5 3 3 6 4 5 5 6 6 5 5 2 5 9 12 18 22 24 25 25 24 23 19 18 18 17 15 13 14 12 12 11 12 14 14 12 10
4 2 3 2 0 6 1 6 1 4 4 9 7 5 7 11 11 9 0 6 6 8 16 22 23 23 24 24 22 20 18 15 16 14 16 16 14 14 13 12 11 12 13 14
2 5 3 8 6 5 3 2 1 3 4 2 4 8 14 9 9 4 7 7 7 10 16 22 25 23 24 23 23 22 19 15 12 11 14 15 15 15 14 12 11 13 14 16
4 3 2 2 4 4 5 4 4 3 7 11 11 12 7 11 7 6 8 7 5 12 14 19 19 22 22 24 24 23 17 16 16 16 16 14 13 13 14 15 16 18 20 20
5 2 3 4 7 5 3 1 4 5 1 12 7 8 7 7 8 10 8 7 9 13 16 20 23 23 27 27 24 21 20 19 19 18 15 14 14 15 17 18 20 20 24 26
4 6 4 5 7 5 6 4 3 5 3 5 4 5 11 12 13 9 7 9 16 16 16 20 21 24 28 28 26 24 22 23 21 20 19 17 18 19 19 18 18 20 19 17
Wind_Direction
359 71 130 230 232 153 179 219 249 345 333 65 321 164 191 190 201 198 207 222 206 187 186 178 183 185 181 184 184 187 187 186 183 180 184 197 208 195 208 228 231 240 228 217
36 163 215 175 207 201 239 268 279 37 7 107 11 303 243 227 209 195 202 210 207 165 163 180 182 182 183 185 187 187 191 193 198 195 192 201 207 210 213 221 228 230 222 211
153 222 190 228 233 166 340 38 317 18 345 35 267 284 199 241 254 170 234 148 122 193 175 182 184 187 190 191 193 196 198 194 197 204 202 196 204 193 191 206 215 217 217 210
154 180 163 356 1 85 288 263 213 170 127 253 42 269 256 226 231 209 211 184 175 165 172 179 186 194 196 197 198 201 200 199 199 199 200 198 200 200 212 220 217 194 188 194
241 186 165 196 215 161 233 210 188 161 156 63 217 16 272 31 253 252 185 190 183 151 92 328 210 205 207 201 204 204 203 205 204 205 203 205 205 214 219 211 198 208 211 215
178 177 178 205 228 199 285 151 47 43 59 278 213 158 274 204 223 208 157 157 165 174 161 141 290 216 205 210 212 215 207 208 209 209 211 215 217 214 196 197 199 193 195 201
172 197 213 177 104 57 73 51 349 16 351 228 321 155 248 253 221 188 172 189 188 187 172 161 129 190 190 196 209 213 213 209 210 211 212 216 221 212 211 206 199 204 205 206
183 316 179 181 192 179 183 151 165 228 206 250 42 232 270 327 347 69 62 17 13 334 311 76 13 345 216 192 200 211 209 210 207 207 202 202 200 179 272 258 221 226 216 192
162 275 302 182 119 156 185 181 193 164 59 77 232 285 101 33 29 143 169 78 27 16 24 37 35 28 9 195 194 202 209 206 194 188 185 181 169 205 233 205 214 202 162 147
226 277 238 0 104 32 158 179 27 9 258 266 269 276 239 230 224 249 235 157 119 82 37 45 63 61 55 109 173 191 208 176 145 155 157 159 158 187 192 188 179 168 155 147
138 126 287 338 110 221 8 2 42 120 138 203 315 273 194 220 206 173 181 88 81 97 62 48 67 87 92 97 120 137 134 142 131 139 152 156 164 165 161 165 165 159 143 143
158 138 166 228 274 340 2 112 130 114 273 190 155 273 294 301 164 152 156 145 115 89 124 103 86 93 99 99 101 111 121 132 146 163 151 146 150 144 147 151 144 134 135 136
187 22 36 348 357 352 53 359 114 129 95 238 142 262 122 108 132 155 158 161 161 137 118 120 110 99 91 96 111 125 132 136 148 152 146 142 139 137 139 140 141 140 159 156
82 95 149 186 213 191 257 243 194 138 114 232 233 277 184 172 165 164 167 171 172 174 157 136 123 125 116 117 124 128 132 143 139 139 134 129 130 134 150 160 156 162 152 160
94 144 188 222 232 219 235 246 273 203 218 169 254 218 253 191 181 177 172 176 177 178 174 174 160 152 157 152 149 140 133 137 138 129 129 141 147 159 165 167 171 165 152 145
3 253 194 276 272 231 255 261 269 242 233 247 263 264 232 152 146 169 185 191 189 188 185 184 168 158 160 157 148 149 139 137 145 145 152 156 160 165 178 170 166 165 157 162
162 139 110 245 324 340 315 252 265 224 210 218 228 245 148 165 180 186 192 198 197 193 181 176 171 169 172 172 167 158 155 155 160 162 163 169 171 169 166 162 166 172 168 174
164 136 149 219 55 205 241 308 197 126 305 283 238 162 162 187 203 236 208 173 166 156 163 177 177 178 183 175 165 153 162 163 160 159 169 170 171 174 173 174 180 177 183 200
206 133 103 157 196 283 298 197 262 199 253 219 213 167 198 170 26 282 184 187 191 185 178 174 187 189 183 169 162 160 157 159 156 172 183 182 187 184 182 188 195 203 221 236
57 69 112 124 190 232 237 250 270 133 291 206 185 221 150 98 191 260 183 172 201 183 169 173 180 189 179 166 165 160 163 165 177 188 193 196 195 195 199 213 230 243 252 257
339 352 126 179 241 284 255 292 309 130 245 70 96 75 27 299 293 297 192 110 153 169 170 179 176 173 173 168 166 166 175 186 189 192 195 202 206 213 225 240 244 249 251 248
189 170 236 98 236 286 332 334 41 235 4 143 133 157 198 246 281 331 345 135 131 157 164 174 166 170 174 174 174 176 189 200 201 202 208 214 221 229 229 225 232 237 247 254
293 186 210 174 218 242 275 156 154 200 168 217 175 206 228 241 242 272 252 186 169 171 170 178 175 173 176 183 189 190 196 189 190 200 206 215 220 222 227 238 249 259 268 264
299 154 205 61 281 269 295 309 184 208 202 204 224 200 190 223 222 232 220 189 174 185 183 183 176 175 186 191 193 194 189 190 188 192 198 205 218 237 247 253 258 266 273 272
214 122 178 264 284 293 266 304 236 279 194 202 275 281 224 207 223 204 204 180 182 181 186 184 183 187 194 193 198 195 193 194 199 207 212 218 229 245 258 267 271 271 274 271
183 191 174 231 228 179 238 259 234 239 176 119 146 293 215 194 209 189 194 187 182 188 189 192 197 197 199 200 204 200 200 205 208 214 220 228 237 246 257 260 272 276 280 289